Location: Piotrkow Trybunalski
(51.4000°N, 19.6830°E)
Time: 12:12:05
(UTC+02:00)

A-11 Canister half - Visible Passes

Search period start: 24 September 2023 00:00
Search period end: 04 October 2023 00:00
Orbit: 1524 x 1685 km, 47.3° (Epoch: 23 September)

Date Brightness Start Highest point End Pass type
(mag) Time Alt. Az. Time Alt. Az. Time Alt. Az.
24 Sep 9.6 20:30:46 10° W 20:39:53 49° SSW 20:45:58 23° SSE visible
24 Sep 10.4 22:36:35 10° W 22:43:13 21° SW 22:44:15 21° SW visible
25 Sep 9.6 20:09:03 10° W 20:18:11 51° SSW 20:25:25 18° SE visible
25 Sep 10.4 22:14:44 10° W 22:21:34 22° SW 22:23:42 20° SSW visible
26 Sep 9.6 19:47:20 10° W 19:56:29 52° SSW 20:04:54 14° SE visible
26 Sep 10.4 21:52:54 10° W 21:59:56 23° SW 22:03:12 19° SSW visible
27 Sep 9.6 19:25:38 10° W 19:34:47 53° SSW 19:44:15 10° SE visible
27 Sep 10.4 21:31:05 10° W 21:38:17 24° SW 21:42:45 18° SSW visible
28 Sep 9.6 19:03:55 10° W 19:13:05 54° SSW 19:22:34 10° SE visible
28 Sep 10.4 21:09:17 10° W 21:16:38 25° SW 21:22:24 15° S visible
29 Sep 9.6 18:42:12 10° W 18:51:23 55° SSW 19:00:52 10° SE visible
29 Sep 10.4 20:47:30 10° W 20:54:59 26° SW 21:02:07 12° S visible
30 Sep 10.4 20:25:43 10° W 20:33:20 28° SW 20:41:08 10° S visible
01 Oct 10.5 20:03:56 10° W 20:11:40 29° SW 20:19:37 10° SSE visible
02 Oct 10.5 19:42:11 10° W 19:50:01 30° SW 19:58:04 10° SSE visible
03 Oct 10.5 19:20:25 10° W 19:28:22 31° SW 19:36:31 10° SSE visible
